Hourly Data Report for April 26, 2004

SHERBROOKE A
QUEBEC

45°26'00.000" N
71°41'00.000" W
241.40 m
7028124
71610
YSC

Download Data

Hourly Data (April 2004)
Hourly Data Report for April 26, 2004
TIME
LST
Temp Definition
°C
Dew Point Definition
°C
Rel Hum Definition
%
Precip. Amount Definition
mm

Wind Dir Definition
10's deg

Wind Spd Definition
km/h
Visibility Definition
km
Stn Press Definition
kPa
Hmdx Definition


Wind Chill Definition


Weather Definition


00:00 2.8 1.5 91   9 9 15.0 98.81     Drizzle
01:00 2.9 1.9 93   11 7 15.0 98.71      
02:00 4.1 3.0 93   13 7 15.0 98.62      
03:00 4.6 3.0 89   15 7 15.0 98.51      
04:00 4.7 2.9 88   14 11 15.0 98.40      
05:00 4.8 2.9 87   18 9 3.5 98.46     Rain
06:00 4.7 3.5 92   13 7 9.7 98.36     Rain
07:00 5.1 3.8 91   17 9 24.1 98.32     Cloudy
08:00 5.7 4.0 89   18 7 19.3 98.28     Cloudy
09:00 6.3 4.3 87   17 6 24.1 98.24     Cloudy
10:00 6.8 4.9 88   16 6 19.3 98.19     Rain
11:00 7.6 5.4 86   17 6 24.1 98.14     Cloudy
12:00 8.3 5.7 84   19 9 24.1 98.13     Cloudy
13:00 8.7 6.0 83   20 9 24.1 98.15     Cloudy
14:00 9.3 6.1 80   20 17 24.1 98.07     Cloudy
15:00 9.3 6.5 83   18 9 19.3 98.03     Cloudy
16:00 9.8 6.8 82   15 6 24.1 97.97     Cloudy
17:00 10.0 7.2 83   18 6 15.0 97.94      
18:00 9.6 7.0 84   13 4 15.0 97.94      
19:00 9.3 6.8 84   19 6 15.0 97.93      
20:00 8.6 6.4 86     0 15.0 97.96      
21:00 8.5 6.3 86     0 15.0 97.98      
22:00 7.9 6.2 89   19 6 15.0 97.94      
23:00 7.9 6.2 89   23 4 15.0 97.92      

Notes on Data Quality.

Legend

  • E = Estimated
  • M = Missing
  • NA = Not Available*
  • [empty] = Indicates an unobserved value
Date modified: